#timestamp,LO_Frequency,Hit,StdDev 
1710910815.5,286047003.8,N
1710910835.3,286047003.6,N
1710910855.2,286047002.6,N
1710910875.0,286047001.5,N
1710910875.9,286047001.5,N
1710910895.7,286047002.2,N
1710910915.6,286047002.3,N
1710910935.4,286047002.7,N
1710910955.3,286047000.0,N
1710910975.1,286047002.3,N
1710910976.0,286047002.3,N
1710910995.8,286047002.6,N
1710911015.7,286047002.3,N
1710911035.5,286047002.4,N
1710911055.3,286047000.0,N
1710911075.2,286046998.9,N
1710911095.0,286046999.3,N
1710911095.9,286046999.3,N
1710911115.8,286046998.6,N
1710911135.6,286046998.1,N
1710911155.4,286047000.4,N
1710911175.3,286047000.5,N
1710911195.1,286047000.6,N
1710911215.9,286047001.2,N
1710911235.7,286046996.5,N
1710911255.5,286046997.1,N
1710911275.4,286046996.9,N
1710911295.2,286046999.2,N
1710911315.0,286046999.6,N
1710911315.9,286046999.6,N
1710911335.1,286046996.5,N
1710911355.9,286046998.7,N
1710911375.7,286047000.9,N
1710911395.6,286047000.4,N
1710911415.4,286046998.5,N
1710911435.2,286046999.0,N
1710911455.1,286046996.5,N
1710911456.0,286046996.5,N
1710911475.8,286046997.2,N
1710911495.6,286046997.2,N
1710911515.5,286046996.8,N
1710911535.3,286046997.3,N
1710911555.2,286046996.7,N
1710911575.9,286046996.9,N
1710911595.7,286046996.8,N
1710911615.6,286046998.8,N
1710911635.4,286047000.8,N
1710911655.2,286047000.9,N
1710911675.1,286047001.2,N
1710911676.0,286047001.2,N
1710911695.8,286047000.7,N
1710911715.7,286047000.0,N
1710911735.5,286047002.7,N
1710911755.3,286047000.7,N
1710911775.2,286047000.4,N
1710911795.0,286047001.0,N
1710911795.9,286047001.0,N
1710911815.8,286046998.5,N
1710911835.6,286047001.1,N
1710911855.4,286047000.8,N
1710911875.3,286047000.5,N
1710911895.1,286046999.9,N
1710911915.8,286047002.7,N
1710911935.7,286047002.5,N
1710911955.5,286047002.6,N
1710911975.4,286047002.6,N
1710911995.2,286046999.8,N
1710912015.0,286046999.7,N
1710912015.9,286046999.7,N
1710912035.8,286047002.0,N
1710912055.6,286047002.1,N
1710912075.4,286047002.0,N
1710912095.3,286047002.0,N
1710912115.1,286047001.9,N
1710912135.9,286046999.8,N
1710912155.7,286046999.8,N
1710912175.5,286046999.9,N
1710912195.4,286047002.3,N
1710912215.2,286047002.7,N
1710912235.0,286047000.1,N
1710912266.0,286047002.4,E
1710912275.9,286047000.0,N
1710912295.7,286046998.4,P
1710912315.6,286046999.2,N
1710912335.4,286046999.6,N
1710912355.2,286046999.1,N
1710912375.1,286046998.4,Y
1710912376.0,286046998.4,P
1710912395.8,286047000.8,N
1710912415.7,286046998.6,N
1710912435.5,286046999.3,N
1710912455.3,286046998.8,N
1710912475.2,286046998.9,N
1710912495.0,286046998.7,N
1710912495.9,286046998.7,N
1710912515.8,286046999.1,N
1710912535.6,286046996.9,Y
1710912555.4,286046996.9,P
1710912575.3,286046999.5,N
1710912595.1,286046998.9,N
1710912615.9,286046999.6,N
1710912635.7,286046997.1,N
1710912655.5,286046997.3,N
1710912675.4,286046997.3,N
1710912695.2,286046997.7,N
1710912715.1,286046995.1,Y
1710912716.0,286046995.1,P
1710912735.8,286046996.8,N
1710912755.6,286046999.4,N
1710912775.5,286046999.3,N
1710912795.3,286047001.0,N
1710912815.1,286046998.9,N
1710912835.9,286047001.0,N
1710912855.7,286046999.5,N
1710912875.6,286046999.1,N
1710912895.4,286047000.5,N
1710912915.2,286047000.9,N
1710912935.1,286047000.5,N
1710912936.0,286047000.5,N
1710912955.8,286047000.0,N
1710912975.7,286047001.9,N
1710912995.5,286046999.7,N
1710913015.3,286047002.1,N
1710913035.2,286047002.6,N
1710913055.0,286047002.3,N
1710913055.9,286047002.3,N
1710913075.8,286046998.1,N
1710913095.6,286047000.9,N
1710913115.4,286046998.1,N
1710913135.3,286046998.4,N
1710913155.1,286046999.0,N
1710913156.0,286046999.0,N
1710913175.8,286046999.2,N
1710913195.7,286046996.7,N
1710913215.5,286046997.1,N
1710913235.4,286046996.9,N
1710913255.2,286046999.1,N
1710913275.0,286046998.8,N
1710913275.9,286046998.8,N
1710913295.8,286046998.9,N
1710913315.6,286046998.9,N
1710913335.4,286047000.7,N
1710913355.3,286047001.1,N
1710913375.1,286047000.7,N
1710913395.9,286047002.7,N
1710913415.7,286047004.2,N
1710913435.5,286047001.6,N
1710913455.4,286047001.3,N
1710913475.2,286047001.9,N
1710913495.0,286047002.2,N
1710913496.0,286047002.2,N
1710913515.8,286047000.9,N
1710913535.6,286046999.9,N
1710913555.5,286047000.0,N
1710913575.3,286046998.5,N
1710913595.1,286046998.1,N
1710913615.9,286046998.4,N
1710913635.7,286046998.7,N
1710913655.6,286046998.6,N
1710913675.4,286047001.1,N
1710913695.2,286047000.5,N
1710913715.1,286047002.5,N
1710913716.0,286047002.5,N
1710913735.8,286047001.9,N
1710913755.7,286047002.6,N
1710913775.5,286047002.7,N
1710913795.3,286047000.0,N
1710913815.2,286046999.7,N
1710913835.0,286046999.7,N
1710913835.9,286046999.7,N
1710913855.8,286047000.3,N
1710913875.6,286047002.7,N
1710913895.4,286047000.2,N
1710913915.3,286047000.4,N
1710913935.1,286047000.3,N
1710913955.8,286047000.3,N
1710913975.7,286047002.8,N
1710913995.5,286047000.2,N
1710914015.4,286046999.9,N
1710914035.2,286046999.7,N
1710914055.0,286047000.7,N
1710914055.9,286047000.7,N
1710914075.8,286046998.1,N
1710914095.6,286047001.2,N
1710914115.4,286046999.7,N
1710914135.3,286047002.5,N
1710914155.1,286047002.4,N
1710914175.9,286047002.2,N
1710914195.7,286047001.5,N
1710914215.5,286046999.9,N
1710914235.4,286046999.8,N
1710914255.2,286047000.4,N
1710914275.1,286047000.6,N
1710914276.0,286047000.6,N
1710914295.8,286046996.5,Y
1710914315.6,286046998.8,P
1710914335.5,286046999.6,N
1710914355.3,286046998.7,N
1710914375.2,286046996.5,Y
1710914395.9,286046998.5,P
